{"data":{"norad_id":41885,"intl_designator":"2016-078B","name":"CYGFM04","alt_names":[],"object_type":"PAYLOAD","status":"INACTIVE","operator":null,"country":"US","launch_date":"2016-12-15","launch_site_code":"ERAS","launch_vehicle":null,"mission":null,"orbit_class":"UNKNOWN","rcs_meters":0.1968,"size_class":null,"mass_kg":null,"dimensions":null,"purposes":["earth_obs"],"wikipedia_slug":null,"has_3d_model":false,"image_url":null,"decayed_at":null,"tle_current":{"epoch":"2026-05-25T01:27:12.949056Z","epoch_age_seconds":76634,"freshness":"FRESH","line1":"1 41885U 16078B   26145.06056654  .00027252  00000+0  32448-3 0  9999","line2":"2 41885  34.9340  22.4216 0007883 328.3713  31.6537 15.60045850525383","mean_motion":15.6004585,"eccentricity":0.0007883,"inclination_deg":34.934,"raan_deg":22.4216,"arg_perigee_deg":328.3713,"mean_anomaly_deg":31.6537,"bstar":0.00032448,"rev_number":52538,"period_min":92.304979369677,"perigee_km":382.1911439528,"apogee_km":392.85788589723,"semimajor_km":6765.661514925,"source":"CELESTRAK","updated_at":"2026-05-25T13:38:11.918860Z"}}}